DB0WUN-13 Weather Reports


Display with metric or nautical units.
time (UTC)temp
F
wind
direction
speed
MPH
gust
MPH
rain 1hr
in
rain 24hr
in
rain mn
in
humidity
%
barometer
mb
20260505160426 65 54 5.0 13.0 0.00 0.00 0.00 66 1006.8
20260505160346 65 56 5.0 13.0 0.00 0.00 0.00 66 1006.8
20260505160308 65 24 5.0 13.0 0.00 0.00 0.00 66 1006.8
20260505160237 65 20 5.0 13.0 0.00 0.00 0.00 66 1006.8
20260505160147 65 27 4.0 13.0 0.00 0.00 0.00 66 1006.8
20260505160110 65 60 5.0 13.0 0.00 0.00 0.00 67 1006.7
20260505153233 65 18 3.0 8.0 0.00 0.00 0.00 67 1006.9
20260505153132 65 325 3.0 8.0 0.00 0.00 0.00 67 1006.9
20260505153032 65 356 3.0 8.0 0.00 0.00 0.00 67 1007.0
20260505152930 65 44 3.0 7.0 0.00 0.00 0.00 67 1007.0
20260505152733 65 30 4.0 7.0 0.00 0.00 0.00 67 1007.0
20260505152631 65 6 4.0 7.0 0.00 0.00 0.00 67 1007.0
20260505152531 65 54 3.0 7.0 0.00 0.00 0.00 67 1007.0
20260505152430 65 59 4.0 7.0 0.00 0.00 0.00 67 1007.1
20260505152229 65 347 4.0 9.0 0.00 0.00 0.00 68 1007.1
20260505152135 65 42 3.0 9.0 0.00 0.00 0.00 68 1007.1
20260505152030 65 47 3.0 9.0 0.00 0.00 0.00 68 1007.2
20260505151948 65 20 3.0 9.0 0.00 0.00 0.00 68 1007.2
20260505151820 65 56 3.0 9.0 0.00 0.00 0.00 68 1007.2
20260505151748 65 85 3.0 9.0 0.00 0.00 0.00 68 1007.1
20260505151711 65 68 3.0 9.0 0.00 0.00 0.00 68 1007.1
20260505151625 65 11 3.0 9.0 0.00 0.00 0.00 68 1007.3
20260505151542 65 62 2.0 9.0 0.00 0.00 0.00 68 1007.1
20260505151226 65 329 3.0 10.0 0.00 0.00 0.00 68 1007.1
20260505151127 65 329 3.0 10.0 0.00 0.00 0.00 68 1007.1
20260505151042 65 14 3.0 11.0 0.00 0.00 0.00 68 1007.2
20260505150955 65 2 4.0 11.0 0.00 0.00 0.00 67 1007.1
20260505150823 65 37 4.0 12.0 0.00 0.00 0.00 67 1007.2
20260505150741 65 11 4.0 12.0 0.00 0.00 0.00 67 1007.2
20260505150701 65 59 4.0 12.0 0.00 0.00 0.00 67 1007.3
20260505150616 65 36 4.0 12.0 0.00 0.00 0.00 67 1007.3
20260505150313 65 16 4.0 12.0 0.00 0.00 0.00 66 1007.2
20260505150209 65 63 5.0 12.0 0.00 0.00 0.00 66 1007.2
20260505150114 65 34 4.0 12.0 0.00 0.00 0.00 65 1007.2
20260505140628 66 317 3.0 12.0 0.00 0.00 0.00 61 1007.4
20260505140533 66 5 2.0 12.0 0.00 0.00 0.00 62 1007.4
20260505140427 66 347 2.0 10.0 0.00 0.00 0.00 62 1007.4
20260505140328 66 7 2.0 9.0 0.00 0.00 0.00 62 1007.4
20260505140224 66 329 2.0 11.0 0.00 0.00 0.00 62 1007.4
20260505140125 66 324 2.0 11.0 0.00 0.00 0.00 62 1007.5
20260505130257 67 328 3.0 11.0 0.00 0.00 0.00 58 1008.0
20260505130159 67 324 3.0 11.0 0.00 0.00 0.00 58 1008.0
20260505130104 67 34 3.0 11.0 0.00 0.00 0.00 59 1008.0
20260505124953 68 331 4.0 14.0 0.00 0.00 0.00 57 1008.0
20260505124851 68 342 4.0 14.0 0.00 0.00 0.00 57 1008.0
20260505124751 68 343 3.0 14.0 0.00 0.00 0.00 58 1008.0
20260505124655 68 321 3.0 9.0 0.00 0.00 0.00 58 1008.0
20260505124555 68 13 3.0 10.0 0.00 0.00 0.00 58 1007.9
20260505124451 69 21 3.0 10.0 0.00 0.00 0.00 57 1008.0
20260505124407 69 25 3.0 10.0 0.00 0.00 0.00 58 1008.0
20260505124325 69 36 3.0 10.0 0.00 0.00 0.00 59 1008.0
20260505124243 69 315 3.0 10.0 0.00 0.00 0.00 58 1007.9
20260505124206 69 325 3.0 10.0 0.00 0.00 0.00 57 1008.0
20260505124124 69 319 3.0 10.0 0.00 0.00 0.00 59 1007.9
20260505124049 69 329 4.0 10.0 0.00 0.00 0.00 58 1008.0
20260505123747 68 327 4.0 11.0 0.00 0.00 0.00 59 1008.0
20260505123650 68 329 4.0 11.0 0.00 0.00 0.00 58 1008.0
20260505123545 68 25 4.0 11.0 0.00 0.00 0.00 57 1008.0
20260505123447 68 324 5.0 11.0 0.00 0.00 0.00 58 1007.9
20260505123348 67 318 5.0 11.0 0.00 0.00 0.00 58 1008.0
20260505123247 67 335 5.0 11.0 0.00 0.00 0.00 58 1008.0
20260505123143 67 321 5.0 11.0 0.00 0.00 0.00 58 1008.0
20260505123045 67 333 4.0 11.0 0.00 0.00 0.00 57 1008.0
20260505122945 67 319 4.0 11.0 0.00 0.00 0.00 58 1008.0
20260505122846 67 312 4.0 11.0 0.00 0.00 0.00 58 1008.0
20260505122742 67 317 4.0 10.0 0.00 0.00 0.00 58 1008.0
20260505122642 67 314 4.0 10.0 0.00 0.00 0.00 58 1008.0
20260505122539 67 324 4.0 10.0 0.00 0.00 0.00 57 1008.1
20260505122443 67 322 4.0 10.0 0.00 0.00 0.00 58 1008.1
20260505122342 67 318 3.0 9.0 0.00 0.00 0.00 58 1008.1
20260505122241 67 332 4.0 13.0 0.00 0.00 0.00 59 1008.0
20260505122139 67 329 4.0 13.0 0.00 0.00 0.00 59 1008.1
20260505122041 67 333 4.0 13.0 0.00 0.00 0.00 59 1008.1
20260505121942 67 326 5.0 13.0 0.00 0.00 0.00 59 1008.0
20260505121839 67 322 5.0 13.0 0.00 0.00 0.00 59 1008.0
20260505121739 67 329 4.0 13.0 0.00 0.00 0.00 59 1008.1
20260505121641 67 332 4.0 13.0 0.00 0.00 0.00 58 1008.1
20260505121554 67 331 4.0 13.0 0.00 0.00 0.00 59 1008.0
20260505121445 67 327 4.0 13.0 0.00 0.00 0.00 58 1008.1
20260505121340 67 331 4.0 13.0 0.00 0.00 0.00 58 1008.1
20260505121238 67 332 4.0 11.0 0.00 0.00 0.00 59 1008.1
20260505121139 67 327 4.0 11.0 0.00 0.00 0.00 59 1008.1
20260505121036 67 329 4.0 11.0 0.00 0.00 0.00 59 1008.2
20260505120935 67 319 3.0 11.0 0.00 0.00 0.00 59 1008.1
20260505120838 67 338 3.0 11.0 0.00 0.00 0.00 59 1008.1
20260505120739 68 333 3.0 11.0 0.00 0.00 0.00 59 1008.1
20260505120645 68 317 3.0 8.0 0.00 0.00 0.00 60 1008.2
20260505120533 68 327 3.0 8.0 0.00 0.00 0.00 59 1008.2
20260505120433 68 320 2.0 8.0 0.00 0.00 0.00 59 1008.1
20260505120333 68 299 3.0 13.0 0.00 0.00 0.00 60 1008.1
20260505120238 68 315 3.0 13.0 0.00 0.00 0.00 59 1008.1
20260505120136 68 329 3.0 13.0 0.00 0.00 0.00 59 1008.1
20260505120037 68 340 3.0 13.0 0.00 0.00 0.00 59 1008.1
20260505115931 68 359 4.0 13.0 0.00 0.00 0.00 59 1008.2
20260505115836 68 333 4.0 13.0 0.00 0.00 0.00 58 1008.1
20260505115735 68 349 5.0 13.0 0.00 0.00 0.00 58 1008.2
20260505115632 68 329 5.0 13.0 0.00 0.00 0.00 58 1008.1
20260505115536 68 326 6.0 13.0 0.00 0.00 0.00 58 1008.1
20260505115451 68 359 6.0 13.0 0.00 0.00 0.00 58 1008.2
20260505115412 68 327 7.0 12.0 0.00 0.00 0.00 57 1008.1
20260505115324 68 326 7.0 13.0 0.00 0.00 0.00 57 1008.1
20260505115245 68 330 7.0 13.0 0.00 0.00 0.00 57 1008.1
20260505115158 69 314 7.0 13.0 0.00 0.00 0.00 58 1008.2
20260505115116 69 333 7.0 13.0 0.00 0.00 0.00 57 1008.1
20260505115032 69 327 7.0 13.0 0.00 0.00 0.00 57 1008.1
20260505114731 69 325 6.0 13.0 0.00 0.00 0.00 56 1008.2
20260505114632 69 333 6.0 13.0 0.00 0.00 0.00 57 1008.1
20260505114534 69 327 6.0 13.0 0.00 0.00 0.00 57 1008.2
20260505114431 69 320 5.0 13.0 0.00 0.00 0.00 56 1008.2
20260505114331 69 326 4.0 13.0 0.00 0.00 0.00 56 1008.2
20260505114235 69 318 4.0 12.0 0.00 0.00 0.00 57 1008.2
20260505114134 69 316 3.0 12.0 0.00 0.00 0.00 56 1008.3
20260505114033 70 314 3.0 12.0 0.00 0.00 0.00 57 1008.3
20260505113933 70 328 3.0 8.0 0.00 0.00 0.00 57 1008.3
20260505113832 70 324 2.0 7.0 0.00 0.00 0.00 57 1008.3
20260505113732 70 14 2.0 7.0 0.00 0.00 0.00 56 1008.3
20260505113632 70 313 2.0 7.0 0.00 0.00 0.00 55 1008.3
20260505113530 70 299 2.0 7.0 0.00 0.00 0.00 54 1008.3
20260505113427 69 333 2.0 7.0 0.00 0.00 0.00 55 1008.2
20260505113329 69 21 2.0 7.0 0.00 0.00 0.00 52 1008.3
20260505113229 69 43 2.0 7.0 0.00 0.00 0.00 51 1008.2
20260505113127 69 72 2.0 7.0 0.00 0.00 0.00 52 1008.2
20260505113031 69 88 2.0 6.0 0.00 0.00 0.00 51 1008.2
20260505112930 69 75 2.0 8.0 0.00 0.00 0.00 50 1008.3
20260505112827 69 42 3.0 8.0 0.00 0.00 0.00 51 1008.3
20260505112727 69 42 3.0 8.0 0.00 0.00 0.00 51 1008.3
20260505112634 69 60 3.0 8.0 0.00 0.00 0.00 52 1008.3
20260505112531 69 46 3.0 8.0 0.00 0.00 0.00 52 1008.3
20260505112428 68 42 3.0 8.0 0.00 0.00 0.00 52 1008.3
20260505112322 69 49 2.0 8.0 0.00 0.00 0.00 54 1008.3
20260505112219 69 56 2.0 8.0 0.00 0.00 0.00 55 1008.4
20260505112121 68 50 2.0 8.0 0.00 0.00 0.00 54 1008.3
20260505112027 68 58 2.0 8.0 0.00 0.00 0.00 54 1008.4
20260505111923 68 84 1.0 5.0 0.00 0.00 0.00 56 1008.3
20260505111826 68 35 1.0 5.0 0.00 0.00 0.00 56 1008.4
20260505111723 68 353 1.0 5.0 0.00 0.00 0.00 56 1008.4
20260505111620 68 5 1.0 5.0 0.00 0.00 0.00 56 1008.3
20260505111528 68 5 1.0 5.0 0.00 0.00 0.00 56 1008.4
20260505111427 68 4 1.0 5.0 0.00 0.00 0.00 57 1008.4
20260505111325 68 12 2.0 6.0 0.00 0.00 0.00 58 1008.5
20260505111219 67 55 2.0 6.0 0.00 0.00 0.00 58 1008.4
20260505111123 67 55 2.0 6.0 0.00 0.00 0.00 58 1008.4
20260505111020 67 18 2.0 10.0 0.00 0.00 0.00 59 1008.3
20260505110921 67 32 2.0 10.0 0.00 0.00 0.00 58 1008.4
20260505110821 67 32 2.0 10.0 0.00 0.00 0.00 59 1008.3
20260505110721 67 32 2.0 10.0 0.00 0.00 0.00 58 1008.4
20260505110627 67 33 2.0 10.0 0.00 0.00 0.00 58 1008.4
20260505110528 67 33 2.0 10.0 0.00 0.00 0.00 58 1008.4
20260505110414 67 33 3.0 10.0 0.00 0.00 0.00 59 1008.3
20260505110318 67 29 3.0 10.0 0.00 0.00 0.00 58 1008.4
20260505110214 67 30 3.0 10.0 0.00 0.00 0.00 59 1008.4
20260505110138 67 34 2.0 10.0 0.00 0.00 0.00 58 1008.4
20260505102135 68 98 4.0 8.0 0.00 0.00 0.00 55 1008.8
20260505102032 69 127 4.0 8.0 0.00 0.00 0.00 55 1008.8
20260505101932 68 80 4.0 8.0 0.00 0.00 0.00 56 1008.8
20260505101835 68 75 4.0 8.0 0.00 0.00 0.00 56 1008.8
20260505101734 68 82 4.0 8.0 0.00 0.00 0.00 55 1008.9
20260505101633 68 101 3.0 7.0 0.00 0.00 0.00 55 1008.8
20260505101530 68 125 3.0 6.0 0.00 0.00 0.00 55 1008.9
20260505101430 68 120 3.0 6.0 0.00 0.00 0.00 55 1008.9
20260505101331 68 121 3.0 7.0 0.00 0.00 0.00 56 1008.9
20260505101230 68 90 4.0 7.0 0.00 0.00 0.00 55 1008.9
20260505101124 68 72 4.0 8.0 0.00 0.00 0.00 55 1008.9
20260505101025 68 106 4.0 8.0 0.00 0.00 0.00 56 1008.9
20260505100924 68 82 4.0 8.0 0.00 0.00 0.00 56 1008.9
20260505100826 67 71 4.0 8.0 0.00 0.00 0.00 57 1008.9
20260505100727 67 44 5.0 8.0 0.00 0.00 0.00 56 1008.9
20260505100618 67 93 5.0 8.0 0.00 0.00 0.00 57 1009.0
20260505100523 67 75 5.0 8.0 0.00 0.00 0.00 56 1009.0
20260505100420 67 85 5.0 8.0 0.00 0.00 0.00 57 1009.0
20260505100317 67 62 5.0 9.0 0.00 0.00 0.00 57 1009.0
20260505100220 67 85 5.0 11.0 0.00 0.00 0.00 57 1009.0
20260505100122 67 82 5.0 11.0 0.00 0.00 0.00 58 1009.0
20260505100022 67 73 5.0 11.0 0.00 0.00 0.00 59 1009.0
20260505095907 67 74 5.0 11.0 0.00 0.00 0.00 58 1009.1
20260505095812 67 59 5.0 11.0 0.00 0.00 0.00 57 1009.1
20260505095706 67 71 5.0 11.0 0.00 0.00 0.00 58 1009.0
20260505095604 67 104 6.0 11.0 0.00 0.00 0.00 57 1009.1
20260505095510 67 102 5.0 11.0 0.00 0.00 0.00 58 1009.1
20260505095408 67 71 5.0 11.0 0.00 0.00 0.00 58 1009.1
20260505095312 67 70 4.0 11.0 0.00 0.00 0.00 59 1009.0
20260505095204 67 94 4.0 10.0 0.00 0.00 0.00 58 1009.1
20260505095108 67 103 4.0 10.0 0.00 0.00 0.00 58 1009.1
20260505095013 67 76 3.0 10.0 0.00 0.00 0.00 57 1009.1
20260505094908 67 77 3.0 10.0 0.00 0.00 0.00 57 1009.1
20260505094805 67 94 2.0 10.0 0.00 0.00 0.00 58 1009.1
20260505094706 67 73 2.0 8.0 0.00 0.00 0.00 58 1009.1
20260505094604 67 62 2.0 8.0 0.00 0.00 0.00 58 1009.1
20260505094516 67 72 2.0 6.0 0.00 0.00 0.00 59 1009.1
20260505094406 67 303 2.0 6.0 0.00 0.00 0.00 59 1009.1
20260505094309 67 303 3.0 6.0 0.00 0.00 0.00 59 1009.1
20260505094203 67 31 3.0 6.0 0.00 0.00 0.00 61 1009.2
20260505094058 66 61 4.0 8.0 0.00 0.00 0.00 60 1009.2
20260505094001 66 85 4.0 8.0 0.00 0.00 0.00 60 1009.2
20260505093857 66 91 4.0 8.0 0.00 0.00 0.00 60 1009.1
20260505093755 66 94 4.0 8.0 0.00 0.00 0.00 59 1009.2
20260505093654 66 70 4.0 8.0 0.00 0.00 0.00 58 1009.2
20260505093551 66 76 3.0 8.0 0.00 0.00 0.00 58 1009.3
20260505093452 66 77 3.0 8.0 0.00 0.00 0.00 59 1009.2
20260505093353 66 75 3.0 8.0 0.00 0.00 0.00 59 1009.2
20260505093252 66 105 4.0 9.0 0.00 0.00 0.00 59 1009.3
20260505093145 66 98 3.0 9.0 0.00 0.00 0.00 61 1009.3
20260505093050 66 84 3.0 9.0 0.00 0.00 0.00 61 1009.2
20260505092950 66 82 3.0 9.0 0.00 0.00 0.00 61 1009.2
20260505092844 66 96 3.0 9.0 0.00 0.00 0.00 60 1009.2
20260505092747 66 101 3.0 9.0 0.00 0.00 0.00 60 1009.3
20260505092643 66 83 3.0 9.0 0.00 0.00 0.00 61 1009.2
20260505092541 66 66 3.0 9.0 0.00 0.00 0.00 60 1009.3
20260505092441 66 66 3.0 9.0 0.00 0.00 0.00 60 1009.3
20260505092339 66 78 3.0 9.0 0.00 0.00 0.00 60 1009.3
20260505092135 66 47 3.0 8.0 0.00 0.00 0.00 60 1009.2
20260505092036 66 47 3.0 8.0 0.00 0.00 0.00 61 1009.3
20260505091935 66 55 3.0 8.0 0.00 0.00 0.00 61 1009.3
20260505091837 66 105 3.0 8.0 0.00 0.00 0.00 61 1009.3
20260505091737 66 71 3.0 9.0 0.00 0.00 0.00 61 1009.4
20260505091632 66 99 3.0 9.0 0.00 0.00 0.00 60 1009.4
20260505091533 66 130 3.0 9.0 0.00 0.00 0.00 60 1009.4
20260505091435 65 115 3.0 9.0 0.00 0.00 0.00 62 1009.4
20260505091337 65 106 3.0 9.0 0.00 0.00 0.00 62 1009.4
20260505091134 65 69 3.0 9.0 0.00 0.00 0.00 62 1009.4
20260505091033 65 82 3.0 9.0 0.00 0.00 0.00 61 1009.4
20260505090934 65 82 3.0 9.0 0.00 0.00 0.00 61 1009.4
20260505090831 65 92 3.0 9.0 0.00 0.00 0.00 61 1009.5
20260505090634 65 77 3.0 8.0 0.00 0.00 0.00 64 1009.5
20260505090533 65 78 3.0 9.0 0.00 0.00 0.00 64 1009.5
20260505090432 65 79 3.0 9.0 0.00 0.00 0.00 62 1009.5
20260505090359 65 79 4.0 9.0 0.00 0.00 0.00 63 1009.5
20260505090236 65 99 4.0 9.0 0.00 0.00 0.00 61 1009.6
20260505090155 65 70 4.0 9.0 0.00 0.00 0.00 61 1009.7
20260505090104 66 91 4.0 9.0 0.00 0.00 0.00 63 1009.7
20260505090018 65 90 4.0 9.0 0.00 0.00 0.00 63 1009.7
20260505085840 65 82 4.0 9.0 0.00 0.00 0.00 63 1009.7
20260505085552 65 97 4.0 7.0 0.00 0.00 0.00 63 1009.7
20260505085501 65 87 4.0 7.0 0.00 0.00 0.00 63 1009.7
20260505085422 65 80 4.0 7.0 0.00 0.00 0.00 62 1009.7
20260505085232 65 93 3.0 7.0 0.00 0.00 0.00 63 1009.8
20260505085157 65 90 3.0 7.0 0.00 0.00 0.00 63 1009.8
20260505085058 65 96 3.0 7.0 0.00 0.00 0.00 62 1009.8
20260505085019 65 120 2.0 7.0 0.00 0.00 0.00 63 1009.7
20260505084939 65 58 2.0 7.0 0.00 0.00 0.00 65 1009.8
20260505084620 65 85 2.0 7.0 0.00 0.00 0.00 66 1009.8
20260505084521 65 101 2.0 5.0 0.00 0.00 0.00 66 1009.8
20260505084413 64 99 2.0 5.0 0.00 0.00 0.00 66 1009.8
20260505084312 64 116 2.0 5.0 0.00 0.00 0.00 66 1009.8
20260505084110 64 92 2.0 5.0 0.00 0.00 0.00 68 1009.9
20260505084017 64 81 2.0 5.0 0.00 0.00 0.00 69 1009.8
20260505083903 64 73 1.0 5.0 0.00 0.00 0.00 69 1009.8
20260505083806 63 77 1.0 5.0 0.00 0.00 0.00 69 1009.9
20260505083710 63 104 1.0 4.0 0.00 0.00 0.00 69 1009.8
20260505083603 63 141 2.0 4.0 0.00 0.00 0.00 69 1009.8
20260505083511 63 153 2.0 4.0 0.00 0.00 0.00 69 1009.8
20260505083405 63 158 2.0 4.0 0.00 0.00 0.00 69 1009.8
20260505083303 63 145 2.0 5.0 0.00 0.00 0.00 69 1009.9
20260505083204 63 145 2.0 5.0 0.00 0.00 0.00 69 1009.9
20260505083058 63 141 2.0 6.0 0.00 0.00 0.00 69 1009.9
20260505082957 63 120 2.0 6.0 0.00 0.00 0.00 69 1009.9
20260505082858 63 120 3.0 6.0 0.00 0.00 0.00 68 1010.0
20260505082757 63 118 3.0 6.0 0.00 0.00 0.00 68 1010.0
20260505082659 63 112 3.0 6.0 0.00 0.00 0.00 68 1009.9
20260505082551 63 97 3.0 6.0 0.00 0.00 0.00 69 1009.9
20260505082450 63 104 3.0 6.0 0.00 0.00 0.00 69 1009.9
20260505082349 63 113 3.0 6.0 0.00 0.00 0.00 70 1009.9
20260505082249 63 98 3.0 6.0 0.00 0.00 0.00 69 1009.9
20260505082152 63 66 3.0 5.0 0.00 0.00 0.00 70 1009.9
20260505082050 63 103 3.0 7.0 0.00 0.00 0.00 70 1009.9
20260505081945 63 106 3.0 7.0 0.00 0.00 0.00 70 1009.9
20260505081843 63 96 3.0 7.0 0.00 0.00 0.00 71 1009.9
20260505081743 62 125 3.0 7.0 0.00 0.00 0.00 71 1009.9
20260505081643 62 113 3.0 7.0 0.00 0.00 0.00 71 1009.9
20260505081540 62 106 3.0 7.0 0.00 0.00 0.00 70 1009.9
20260505081438 63 101 3.0 7.0 0.00 0.00 0.00 70 1009.9
20260505081338 62 96 2.0 7.0 0.00 0.00 0.00 70 1009.9
20260505081238 62 111 2.0 7.0 0.00 0.00 0.00 70 1009.9
20260505081140 63 102 2.0 7.0 0.00 0.00 0.00 70 1010.0
20260505081033 63 76 1.0 4.0 0.00 0.00 0.00 71 1009.9
20260505080933 63 96 1.0 4.0 0.00 0.00 0.00 71 1010.0
20260505080835 62 100 1.0 4.0 0.00 0.00 0.00 72 1010.0
20260505080733 62 112 2.0 4.0 0.00 0.00 0.00 73 1009.9
20260505080632 62 111 2.0 4.0 0.00 0.00 0.00 72 1010.0
20260505080529 62 141 2.0 4.0 0.00 0.00 0.00 72 1010.0
20260505080430 62 117 2.0 4.0 0.00 0.00 0.00 73 1010.0
20260505080332 62 58 2.0 4.0 0.00 0.00 0.00 73 1010.0
20260505080234 61 58 2.0 4.0 0.00 0.00 0.00 73 1010.0
20260505080132 61 57 2.0 4.0 0.00 0.00 0.00 73 1010.1
20260505080033 61 55 2.0 4.0 0.00 0.00 0.00 73 1010.1
20260505075927 61 59 2.0 4.0 0.00 0.00 0.00 73 1010.1
20260505075824 61 99 2.0 4.0 0.00 0.00 0.00 73 1010.1
20260505075723 61 92 2.0 4.0 0.00 0.00 0.00 73 1010.0
20260505075623 61 115 2.0 4.0 0.00 0.00 0.00 73 1010.1
20260505075521 62 111 1.0 4.0 0.00 0.00 0.00 72 1010.1
20260505075420 62 112 1.0 4.0 0.00 0.00 0.00 72 1010.1
20260505075320 62 113 1.0 4.0 0.00 0.00 0.00 73 1010.1
20260505075220 62 76 1.0 3.0 0.00 0.00 0.00 73 1010.1
20260505075125 62 329 1.0 4.0 0.00 0.00 0.00 73 1010.1
20260505075017 62 329 1.0 4.0 0.00 0.00 0.00 74 1010.1
20260505074907 62 346 1.0 4.0 0.00 0.00 0.00 74 1010.2
20260505074809 62 347 1.0 4.0 0.00 0.00 0.00 74 1010.2
20260505074606 61 347 1.0 4.0 0.00 0.00 0.00 75 1010.1
20260505074511 61 54 1.0 4.0 0.00 0.00 0.00 75 1010.2
20260505074405 61 62 2.0 6.0 0.00 0.00 0.00 75 1010.2
20260505074305 61 63 2.0 6.0 0.00 0.00 0.00 75 1010.1
20260505074207 60 55 2.0 6.0 0.00 0.00 0.00 75 1010.2
20260505074107 60 51 2.0 6.0 0.00 0.00 0.00 75 1010.2
20260505074000 60 51 2.0 6.0 0.00 0.00 0.00 75 1010.2
20260505073902 60 51 2.0 6.0 0.00 0.00 0.00 75 1010.3
20260505073802 60 52 2.0 6.0 0.00 0.00 0.00 76 1010.1
20260505073708 60 61 2.0 6.0 0.00 0.00 0.00 77 1010.2
20260505073602 60 16 2.0 6.0 0.00 0.00 0.00 76 1010.2
20260505073503 60 325 2.0 6.0 0.00 0.00 0.00 77 1010.3
20260505073401 60 326 1.0 4.0 0.00 0.00 0.00 76 1010.2
20260505073258 60 290 1.0 4.0 0.00 0.00 0.00 76 1010.3
20260505073159 60 317 1.0 4.0 0.00 0.00 0.00 75 1010.2
20260505073058 60 318 2.0 5.0 0.00 0.00 0.00 76 1010.3
20260505072957 60 305 2.0 5.0 0.00 0.00 0.00 76 1010.3
20260505072853 60 287 2.0 5.0 0.00 0.00 0.00 77 1010.3
20260505072757 60 329 2.0 5.0 0.00 0.00 0.00 78 1010.2
20260505072700 60 329 2.0 5.0 0.00 0.00 0.00 77 1010.3
20260505072550 60 327 2.0 5.0 0.00 0.00 0.00 78 1010.3
20260505072450 60 314 2.0 5.0 0.00 0.00 0.00 79 1010.3
20260505072345 59 305 2.0 5.0 0.00 0.00 0.00 78 1010.3
20260505072246 59 305 2.0 5.0 0.00 0.00 0.00 78 1010.4
20260505072144 59 322 1.0 5.0 0.00 0.00 0.00 78 1010.4
20260505072046 59 326 1.0 5.0 0.00 0.00 0.00 79 1010.4
20260505071943 59 322 1.0 5.0 0.00 0.00 0.00 79 1010.4
20260505071843 59 350 1.0 5.0 0.00 0.00 0.00 80 1010.5
20260505071744 59 350 1.0 5.0 0.00 0.00 0.00 80 1010.4
20260505071642 58 18 1.0 5.0 0.00 0.00 0.00 80 1010.4
20260505071542 58 6 1.0 6.0 0.00 0.00 0.00 79 1010.4
20260505071441 58 318 2.0 6.0 0.00 0.00 0.00 80 1010.4
20260505071340 58 334 2.0 6.0 0.00 0.00 0.00 80 1010.5
20260505071239 58 334 2.0 6.0 0.00 0.00 0.00 80 1010.5
20260505071140 58 331 2.0 6.0 0.00 0.00 0.00 80 1010.4
20260505071039 58 331 2.0 6.0 0.00 0.00 0.00 80 1010.5
20260505070937 58 330 2.0 6.0 0.00 0.00 0.00 80 1010.4
20260505070837 58 329 3.0 6.0 0.00 0.00 0.00 81 1010.4
20260505070733 58 329 3.0 6.0 0.00 0.00 0.00 81 1010.4
20260505070634 58 327 3.0 6.0 0.00 0.00 0.00 80 1010.4
20260505070534 58 333 3.0 6.0 0.00 0.00 0.00 80 1010.4
20260505070435 58 326 2.0 6.0 0.00 0.00 0.00 81 1010.4
20260505070339 57 307 2.0 4.0 0.00 0.00 0.00 81 1010.5
20260505070232 57 302 2.0 4.0 0.00 0.00 0.00 81 1010.5
20260505070134 57 320 2.0 4.0 0.00 0.00 0.00 81 1010.5
20260505070037 57 330 2.0 4.0 0.00 0.00 0.00 80 1010.4
20260505065935 57 329 1.0 4.0 0.00 0.00 0.00 81 1010.4
20260505065837 57 327 1.0 4.0 0.00 0.00 0.00 81 1010.4
20260505065730 57 329 1.0 4.0 0.00 0.00 0.00 81 1010.4
20260505065630 57 324 1.0 4.0 0.00 0.00 0.00 81 1010.5
20260505065530 57 324 1.0 4.0 0.00 0.00 0.00 81 1010.5
20260505065431 57 324 1.0 4.0 0.00 0.00 0.00 81 1010.4
20260505065329 57 324 1.0 4.0 0.00 0.00 0.00 81 1010.4
20260505065231 57 331 1.0 4.0 0.00 0.00 0.00 81 1010.5
20260505065144 57 329 1.0 4.0 0.00 0.00 0.00 81 1010.4
20260505065107 57 331 1.0 4.0 0.00 0.00 0.00 82 1010.5
20260505065022 57 331 1.0 5.0 0.00 0.00 0.00 81 1010.5
20260505064949 57 331 1.0 5.0 0.00 0.00 0.00 81 1010.5
20260505064918 57 331 1.0 5.0 0.00 0.00 0.00 81 1010.5
20260505064615 57 331 2.0 5.0 0.00 0.00 0.00 81 1010.5
20260505064519 57 331 2.0 5.0 0.00 0.00 0.00 81 1010.5
20260505064415 57 331 2.0 5.0 0.00 0.00 0.00 81 1010.5
20260505064316 57 331 2.0 5.0 0.00 0.00 0.00 81 1010.5
20260505064215 57 331 2.0 5.0 0.00 0.00 0.00 81 1010.5
20260505064113 57 329 2.0 5.0 0.00 0.00 0.00 82 1010.5
20260505064017 57 331 1.0 5.0 0.00 0.00 0.00 82 1010.6
20260505063913 56 329 1.0 5.0 0.00 0.00 0.00 81 1010.5
20260505063818 56 329 1.0 5.0 0.00 0.00 0.00 81 1010.6
20260505063714 56 330 1.0 5.0 0.00 0.00 0.00 81 1010.6
20260505063608 57 328 1.0 5.0 0.00 0.00 0.00 81 1010.6
20260505063520 57 333 1.0 4.0 0.00 0.00 0.00 82 1010.6
20260505063413 57 333 1.0 4.0 0.00 0.00 0.00 82 1010.5
20260505063307 57 335 1.0 4.0 0.00 0.00 0.00 82 1010.6
20260505063207 57 335 1.0 4.0 0.00 0.00 0.00 82 1010.6
20260505063106 56 335 1.0 4.0 0.00 0.00 0.00 82 1010.6
20260505063010 56 6 1.0 5.0 0.00 0.00 0.00 82 1010.6
20260505062908 56 6 1.0 5.0 0.00 0.00 0.00 81 1010.6
20260505062808 56 6 1.0 5.0 0.00 0.00 0.00 82 1010.6
20260505062707 56 6 1.0 5.0 0.00 0.00 0.00 82 1010.6
20260505062606 56 329 1.0 5.0 0.00 0.00 0.00 82 1010.6
20260505062514 56 329 1.0 5.0 0.00 0.00 0.00 82 1010.6
20260505062405 56 338 1.0 5.0 0.00 0.00 0.00 82 1010.7
20260505062308 56 42 1.0 5.0 0.00 0.00 0.00 82 1010.6
20260505062206 56 67 1.0 5.0 0.00 0.00 0.00 82 1010.7
20260505062104 56 67 1.0 5.0 0.00 0.00 0.00 83 1010.6
20260505062005 56 40 1.0 5.0 0.00 0.00 0.00 83 1010.6
20260505061905 56 326 1.0 5.0 0.00 0.00 0.00 83 1010.6
20260505061807 56 326 1.0 5.0 0.00 0.00 0.00 83 1010.6
20260505061703 56 325 1.0 5.0 0.00 0.00 0.00 82 1010.7
20260505061604 56 323 0.0 5.0 0.00 0.00 0.00 83 1010.7
20260505061459 56 333 0.0 3.0 0.00 0.00 0.00 83 1010.7
20260505061426 56 333 0.0 3.0 0.00 0.00 0.00 82 1010.7
20260505061358 56 333 0.0 3.0 0.00 0.00 0.00 83 1010.7
20260505061318 56 21 0.0 3.0 0.00 0.00 0.00 83 1010.7
20260505061238 56 21 1.0 3.0 0.00 0.00 0.00 82 1010.7
20260505061156 56 21 1.0 3.0 0.00 0.00 0.00 82 1010.6
20260505061119 56 21 1.0 3.0 0.00 0.00 0.00 82 1010.7
20260505061045 56 14 1.0 3.0 0.00 0.00 0.00 82 1010.7
20260505061009 56 338 1.0 4.0 0.00 0.00 0.00 83 1010.7
20260505060724 56 337 1.0 4.0 0.00 0.00 0.00 83 1010.7
20260505060639 56 337 1.0 5.0 0.00 0.00 0.00 83 1010.7
20260505060600 56 337 1.0 5.0 0.00 0.00 0.00 83 1010.7
20260505060529 56 336 1.0 5.0 0.00 0.00 0.00 83 1010.7
20260505060447 56 333 1.0 5.0 0.00 0.00 0.00 83 1010.8
20260505060149 56 332 1.0 5.0 0.00 0.00 0.00 83 1010.8
20260505060059 56 332 1.0 5.0 0.00 0.00 0.00 83 1010.8
20260505060011 56 248 1.0 5.0 0.00 0.00 0.00 82 1010.8
20260505055931 56 239 1.0 5.0 0.00 0.00 0.00 82 1010.8
20260505055854 56 253 1.0 5.0 0.00 0.00 0.00 82 1010.8
20260505055536 56 217 1.0 4.0 0.00 0.00 0.00 83 1010.9
20260505055431 56 253 1.0 4.0 0.00 0.00 0.00 83 1010.8
20260505055333 56 253 1.0 6.0 0.00 0.00 0.00 83 1010.8
20260505055231 56 253 1.0 6.0 0.00 0.00 0.00 83 1010.8
20260505055132 56 222 2.0 6.0 0.00 0.00 0.00 83 1010.8
20260505055033 56 322 2.0 6.0 0.00 0.00 0.00 83 1010.8
20260505054940 56 322 2.0 6.0 0.00 0.00 0.00 83 1010.8
20260505054846 56 321 2.0 6.0 0.00 0.00 0.00 83 1010.8
20260505054802 56 313 2.0 6.0 0.00 0.00 0.00 83 1010.7
20260505054710 56 313 2.0 6.0 0.00 0.00 0.00 82 1010.7
20260505054625 56 315 2.0 6.0 0.00 0.00 0.00 82 1010.8
20260505054543 56 315 2.0 6.0 0.00 0.00 0.00 82 1010.6
20260505054504 56 326 1.0 6.0 0.00 0.00 0.00 82 1010.7
20260505054417 56 331 1.0 6.0 0.00 0.00 0.00 82 1010.7
20260505054121 56 318 1.0 5.0 0.00 0.00 0.00 82 1010.7
20260505054022 56 293 1.0 5.0 0.00 0.00 0.00 82 1010.7
20260505053918 56 285 1.0 5.0 0.00 0.00 0.00 83 1010.7
20260505053815 56 320 1.0 5.0 0.00 0.00 0.00 83 1010.7
20260505053716 56 320 1.0 5.0 0.00 0.00 0.00 83 1010.7
20260505053616 56 321 1.0 6.0 0.00 0.00 0.00 83 1010.7
20260505053518 56 279 1.0 6.0 0.00 0.00 0.00 83 1010.7
20260505053413 56 276 1.0 6.0 0.00 0.00 0.00 83 1010.7
20260505053308 55 267 1.0 6.0 0.00 0.00 0.00 83 1010.6
20260505053207 55 292 1.0 6.0 0.00 0.00 0.00 84 1010.6
20260505053109 55 314 1.0 6.0 0.00 0.00 0.00 84 1010.7
20260505053019 55 324 2.0 6.0 0.00 0.00 0.00 85 1010.7
20260505052910 55 324 2.0 7.0 0.00 0.00 0.00 84 1010.6
20260505052804 55 324 1.0 7.0 0.00 0.00 0.00 84 1010.6
20260505052709 55 326 1.0 7.0 0.00 0.00 0.00 84 1010.6
20260505052608 55 325 2.0 7.0 0.00 0.00 0.00 85 1010.7
20260505052510 55 320 2.0 7.0 0.00 0.00 0.00 84 1010.7
20260505052405 55 320 2.0 7.0 0.00 0.00 0.00 84 1010.6
20260505052307 55 320 2.0 7.0 0.00 0.00 0.00 84 1010.6
20260505052205 55 326 2.0 7.0 0.00 0.00 0.00 84 1010.6
20260505052102 55 321 2.0 7.0 0.00 0.00 0.00 84 1010.6
20260505052005 55 326 1.0 7.0 0.00 0.00 0.00 84 1010.6
20260505051900 55 327 1.0 6.0 0.00 0.00 0.00 84 1010.6
20260505051759 55 333 1.0 6.0 0.00 0.00 0.00 84 1010.6
20260505051658 55 7 1.0 6.0 0.00 0.00 0.00 84 1010.5
20260505051558 55 15 1.0 6.0 0.00 0.00 0.00 84 1010.5
20260505051456 55 331 1.0 6.0 0.00 0.00 0.00 84 1010.6
20260505051356 55 331 1.0 6.0 0.00 0.00 0.00 84 1010.4
20260505051252 55 330 1.0 5.0 0.00 0.00 0.00 85 1010.5
20260505051151 55 332 1.0 3.0 0.00 0.00 0.00 85 1010.6
20260505051047 55 332 1.0 4.0 0.00 0.00 0.00 85 1010.6
20260505050948 55 327 1.0 5.0 0.00 0.00 0.00 85 1010.6
20260505050839 55 328 1.0 5.0 0.00 0.00 0.00 85 1010.5
20260505050742 54 328 0.0 5.0 0.00 0.00 0.00 85 1010.6
20260505050643 54 327 0.0 5.0 0.00 0.00 0.00 85 1010.6
20260505050539 55 328 0.0 5.0 0.00 0.00 0.00 85 1010.5
20260505050437 54 338 0.0 5.0 0.00 0.00 0.00 85 1010.6
20260505050339 54 346 0.0 5.0 0.00 0.00 0.00 85 1010.6
20260505050237 54 346 0.0 5.0 0.00 0.00 0.00 85 1010.6
20260505050135 54 346 0.0 5.0 0.00 0.00 0.00 86 1010.6
20260505041516 54 328 6.0 12.0 0.00 0.00 0.00 85 1010.6
20260505041410 54 325 7.0 12.0 0.00 0.00 0.00 85 1010.7
20260505041305 54 330 7.0 12.0 0.00 0.00 0.00 84 1010.7
20260505041205 54 325 7.0 12.0 0.00 0.00 0.00 84 1010.7
20260505041019 54 319 7.0 12.0 0.00 0.00 0.00 84 1010.8
20260505040900 54 314 7.0 12.0 0.00 0.00 0.00 84 1010.7
20260505040802 54 316 7.0 12.0 0.00 0.00 0.00 84 1010.8
20260505040717 54 349 8.0 13.0 0.00 0.00 0.00 84 1010.8
20260505040629 54 338 8.0 13.0 0.00 0.00 0.00 84 1010.8
20260505040545 54 319 8.0 13.0 0.00 0.00 0.00 84 1010.8
20260505040506 54 320 8.0 13.0 0.00 0.00 0.00 84 1010.8
20260505040425 54 324 8.0 13.0 0.00 0.00 0.00 84 1010.8
20260505040350 54 314 8.0 13.0 0.00 0.00 0.00 84 1010.7
20260505040057 54 326 8.0 14.0 0.00 0.00 0.00 84 1010.8
20260505035956 54 315 8.0 14.0 0.00 0.00 0.00 84 1010.9
20260505035849 54 324 8.0 14.0 0.00 0.00 0.00 84 1010.8
20260505035751 54 324 7.0 14.0 0.00 0.00 0.00 84 1010.8
20260505035649 54 320 7.0 14.0 0.00 0.00 0.00 84 1010.8
20260505035552 54 328 7.0 14.0 0.00 0.00 0.00 84 1010.8
20260505035452 54 320 7.0 14.0 0.00 0.00 0.00 84 1010.8
20260505035348 54 318 7.0 14.0 0.00 0.00 0.00 84 1010.8
20260505035249 54 319 7.0 14.0 0.00 0.00 0.00 84 1010.8
20260505035150 54 329 6.0 14.0 0.00 0.00 0.00 84 1010.8
20260505035050 54 329 6.0 13.0 0.00 0.00 0.00 84 1010.8
20260505034950 54 331 6.0 13.0 0.00 0.00 0.00 84 1010.8
20260505034849 54 340 6.0 13.0 0.00 0.00 0.00 84 1010.8
20260505034751 54 323 5.0 13.0 0.00 0.00 0.00 84 1010.8
20260505034650 54 338 5.0 13.0 0.00 0.00 0.00 84 1010.8
20260505034551 54 335 5.0 13.0 0.00 0.00 0.00 84 1010.8
20260505034452 54 329 5.0 11.0 0.00 0.00 0.00 84 1010.9
20260505034352 54 322 5.0 11.0 0.00 0.00 0.00 83 1010.8
20260505034251 54 343 5.0 11.0 0.00 0.00 0.00 83 1010.8
20260505034209 54 325 4.0 11.0 0.00 0.00 0.00 84 1010.9
20260505034122 54 319 4.0 10.0 0.00 0.00 0.00 84 1010.9
20260505034031 54 328 4.0 10.0 0.00 0.00 0.00 83 1010.9
20260505033959 54 324 4.0 10.0 0.00 0.00 0.00 83 1010.9
20260505033920 54 333 4.0 10.0 0.00 0.00 0.00 83 1010.9
20260505033842 54 319 4.0 10.0 0.00 0.00 0.00 83 1010.9
20260505033546 54 329 4.0 10.0 0.00 0.00 0.00 83 1011.0
20260505033447 54 322 3.0 9.0 0.00 0.00 0.00 83 1011.0
20260505033345 54 320 3.0 9.0 0.00 0.00 0.00 83 1011.0
20260505033249 54 332 3.0 9.0 0.00 0.00 0.00 83 1011.1
20260505033144 55 326 3.0 9.0 0.00 0.00 0.00 83 1011.1
20260505033048 55 332 3.0 9.0 0.00 0.00 0.00 83 1011.1
20260505032942 55 324 3.0 9.0 0.00 0.00 0.00 83 1011.0
20260505032840 55 324 3.0 8.0 0.00 0.00 0.00 82 1011.0
20260505032741 55 333 2.0 8.0 0.00 0.00 0.00 82 1011.0
20260505032642 55 1 3.0 8.0 0.00 0.00 0.00 82 1011.0
20260505032542 55 330 4.0 11.0 0.00 0.00 0.00 82 1011.0
20260505032440 55 328 4.0 11.0 0.00 0.00 0.00 82 1011.1
20260505032338 55 324 4.0 11.0 0.00 0.00 0.00 82 1011.0
20260505032236 55 331 5.0 11.0 0.00 0.00 0.00 82 1011.0
20260505032136 55 319 5.0 11.0 0.00 0.00 0.00 82 1011.1
20260505032039 55 322 5.0 11.0 0.00 0.00 0.00 82 1011.0
20260505031941 55 331 5.0 11.0 0.00 0.00 0.00 82 1011.0
20260505031838 55 329 6.0 11.0 0.00 0.00 0.00 82 1011.0
20260505031740 55 328 7.0 12.0 0.00 0.00 0.00 82 1011.0
20260505031640 55 325 7.0 12.0 0.00 0.00 0.00 82 1011.1
20260505031540 55 325 6.0 12.0 0.00 0.00 0.00 81 1011.0
20260505031442 55 324 7.0 12.0 0.00 0.00 0.00 81 1011.0
20260505031342 55 329 7.0 12.0 0.00 0.00 0.00 81 1011.1
20260505031233 55 324 7.0 12.0 0.00 0.00 0.00 81 1011.1
20260505031134 55 321 7.0 13.0 0.00 0.00 0.00 81 1011.0
20260505031036 55 312 7.0 13.0 0.00 0.00 0.00 81 1011.0
20260505030932 55 321 7.0 13.0 0.00 0.00 0.00 81 1011.0
20260505030837 55 330 8.0 13.0 0.00 0.00 0.00 81 1011.0
20260505030736 55 320 7.0 13.0 0.00 0.00 0.00 81 1011.0
20260505030634 55 331 8.0 13.0 0.00 0.00 0.00 81 1011.0
20260505030548 55 326 8.0 13.0 0.00 0.00 0.00 81 1011.0
20260505030432 55 326 8.0 13.0 0.00 0.00 0.00 81 1011.0
20260505030332 55 331 8.0 13.0 0.00 0.00 0.00 81 1010.9
20260505030235 55 332 8.0 13.0 0.00 0.00 0.00 81 1011.0
20260505030137 55 324 7.0 13.0 0.00 0.00 0.00 81 1011.0
20260505030035 55 317 7.0 13.0 0.00 0.00 0.00 81 1011.0
20260505025931 55 331 7.0 13.0 0.00 0.00 0.00 81 1011.1
20260505025828 55 321 7.0 13.0 0.00 0.00 0.00 81 1011.1
20260505025750 55 324 7.0 13.0 0.00 0.00 0.00 81 1011.0
20260505025718 55 314 7.0 13.0 0.00 0.00 0.00 81 1011.0
20260505025636 55 341 7.0 13.0 0.00 0.00 0.00 81 1011.1
20260505025542 55 327 7.0 12.0 0.00 0.00 0.00 81 1011.1
20260505025459 55 333 7.0 12.0 0.00 0.00 0.00 81 1011.1
20260505025425 55 330 7.0 12.0 0.00 0.00 0.00 81 1011.0
20260505025343 55 322 7.0 12.0 0.00 0.00 0.00 81 1011.1
20260505025030 55 332 8.0 12.0 0.00 0.00 0.00 81 1011.1
20260505024940 55 333 8.0 12.0 0.00 0.00 0.00 81 1011.2
20260505024906 55 331 8.0 12.0 0.00 0.00 0.00 80 1011.2
20260505024827 55 325 8.0 12.0 0.00 0.00 0.00 80 1011.1
20260505024755 55 329 8.0 12.0 0.00 0.00 0.00 80 1011.1
20260505024659 55 307 8.0 12.0 0.00 0.00 0.00 80 1011.1
20260505024612 55 314 8.0 12.0 0.00 0.00 0.00 80 1011.1
20260505024539 55 320 8.0 12.0 0.00 0.00 0.00 80 1011.2
20260505024241 55 324 8.0 13.0 0.00 0.00 0.00 80 1011.1
20260505024205 55 331 8.0 13.0 0.00 0.00 0.00 80 1011.1
20260505024122 55 327 8.0 13.0 0.00 0.00 0.00 80 1011.1
20260505024030 55 324 8.0 13.0 0.00 0.00 0.00 80 1011.1
20260505023951 55 335 8.0 13.0 0.00 0.00 0.00 80 1011.2
20260505023906 55 321 8.0 13.0 0.00 0.00 0.00 80 1011.2
20260505023826 55 326 8.0 13.0 0.00 0.00 0.00 80 1011.2
20260505023739 55 327 8.0 13.0 0.00 0.00 0.00 80 1011.2
20260505023650 55 326 8.0 13.0 0.00 0.00 0.00 80 1011.2
20260505023615 55 329 8.0 13.0 0.00 0.00 0.00 80 1011.2
20260505023536 55 320 7.0 13.0 0.00 0.00 0.00 80 1011.2
20260505023503 55 322 8.0 13.0 0.00 0.00 0.00 80 1011.3
20260505023202 55 327 8.0 13.0 0.00 0.00 0.00 80 1011.3
20260505023111 55 319 8.0 13.0 0.00 0.00 0.00 80 1011.2
20260505023028 55 321 7.0 13.0 0.00 0.00 0.00 80 1011.3
20260505022733 55 321 7.0 13.0 0.00 0.00 0.00 80 1011.3
20260505022700 55 314 7.0 13.0 0.00 0.00 0.00 81 1011.3
20260505022614 55 321 7.0 13.0 0.00 0.00 0.00 81 1011.2
20260505022520 55 321 7.0 13.0 0.00 0.00 0.00 81 1011.3
20260505022440 56 319 7.0 13.0 0.00 0.00 0.00 81 1011.3
20260505022403 56 327 7.0 13.0 0.00 0.00 0.00 81 1011.3
20260505022328 56 311 7.0 13.0 0.00 0.00 0.00 81 1011.4
20260505022023 56 318 7.0 13.0 0.00 0.00 0.00 81 1011.4
20260505021922 56 321 7.0 13.0 0.00 0.00 0.00 80 1011.3
20260505021821 56 316 7.0 13.0 0.00 0.00 0.00 80 1011.3
20260505021726 56 337 7.0 13.0 0.00 0.00 0.00 80 1011.3
20260505021623 56 333 7.0 13.0 0.00 0.00 0.00 80 1011.4
20260505021525 56 329 7.0 13.0 0.00 0.00 0.00 80 1011.3
20260505021422 56 327 7.0 12.0 0.00 0.00 0.00 80 1011.4
20260505021322 56 329 7.0 12.0 0.00 0.00 0.00 80 1011.4
20260505021249 56 334 7.0 12.0 0.00 0.00 0.00 80 1011.4
20260505021210 56 319 7.0 12.0 0.00 0.00 0.00 80 1011.4
20260505021120 56 315 7.0 12.0 0.00 0.00 0.00 80 1011.4
20260505021030 56 327 6.0 12.0 0.00 0.00 0.00 80 1011.4
20260505020952 56 326 6.0 12.0 0.00 0.00 0.00 80 1011.5
20260505020918 56 324 6.0 12.0 0.00 0.00 0.00 80 1011.5
20260505020833 56 326 6.0 12.0 0.00 0.00 0.00 80 1011.4
20260505020522 56 326 6.0 11.0 0.00 0.00 0.00 80 1011.5
20260505020422 56 321 6.0 11.0 0.00 0.00 0.00 80 1011.6
20260505020316 56 321 5.0 11.0 0.00 0.00 0.00 80 1011.6
20260505020218 56 321 5.0 11.0 0.00 0.00 0.00 80 1011.5
20260505020124 56 320 5.0 11.0 0.00 0.00 0.00 80 1011.5
20260505020024 56 328 5.0 10.0 0.00 0.00 0.00 80 1011.6
20260505015917 56 329 5.0 10.0 0.00 0.00 0.00 80 1011.6
20260505015818 56 301 5.0 10.0 0.00 0.00 0.00 80 1011.6
20260505015727 56 326 5.0 10.0 0.00 0.00 0.00 80 1011.5
20260505015649 56 310 5.0 10.0 0.00 0.00 0.00 80 1011.6
20260505015605 56 332 5.0 10.0 0.00 0.00 0.00 80 1011.5
20260505015517 56 324 6.0 10.0 0.00 0.00 0.00 80 1011.5
20260505015441 56 323 6.0 10.0 0.00 0.00 0.00 80 1011.5
20260505015401 56 323 6.0 10.0 0.00 0.00 0.00 80 1011.5
20260505015326 56 323 6.0 10.0 0.00 0.00 0.00 80 1011.4
20260505015028 56 319 6.0 10.0 0.00 0.00 0.00 80 1011.4
20260505014916 56 316 6.0 10.0 0.00 0.00 0.00 80 1011.5
20260505014823 56 327 6.0 10.0 0.00 0.00 0.00 80 1011.5
20260505014717 56 321 6.0 10.0 0.00 0.00 0.00 80 1011.4
20260505014619 56 323 5.0 10.0 0.00 0.00 0.00 80 1011.4
20260505014529 56 319 5.0 10.0 0.00 0.00 0.00 80 1011.4
20260505014436 56 335 4.0 9.0 0.00 0.00 0.00 80 1011.4
20260505014355 56 319 4.0 9.0 0.00 0.00 0.00 80 1011.5
20260505014313 56 326 3.0 9.0 0.00 0.00 0.00 80 1011.5
20260505014232 56 327 3.0 8.0 0.00 0.00 0.00 80 1011.6
20260505014135 56 325 2.0 8.0 0.00 0.00 0.00 80 1011.5
20260505014041 56 326 2.0 8.0 0.00 0.00 0.00 79 1011.6
20260505014005 56 327 2.0 8.0 0.00 0.00 0.00 79 1011.6
20260505013922 56 324 2.0 5.0 0.00 0.00 0.00 79 1011.6
20260505013849 56 305 2.0 5.0 0.00 0.00 0.00 79 1011.6
20260505013557 56 293 2.0 5.0 0.00 0.00 0.00 79 1011.7
20260505013511 56 295 2.0 5.0 0.00 0.00 0.00 79 1011.8
20260505013438 56 324 1.0 5.0 0.00 0.00 0.00 79 1011.8
20260505013400 56 329 1.0 5.0 0.00 0.00 0.00 79 1011.8
20260505013328 56 329 1.0 5.0 0.00 0.00 0.00 79 1011.7
20260505013016 56 329 1.0 5.0 0.00 0.00 0.00 78 1011.7
20260505012917 56 324 1.0 5.0 0.00 0.00 0.00 78 1011.7
20260505012814 56 292 1.0 5.0 0.00 0.00 0.00 78 1011.7
20260505012712 57 315 1.0 5.0 0.00 0.00 0.00 78 1011.7
20260505012619 57 315 1.0 5.0 0.00 0.00 0.00 78 1011.8
20260505012518 57 310 0.0 5.0 0.00 0.00 0.00 78 1011.8
20260505012415 57 327 0.0 2.0 0.00 0.00 0.00 77 1011.8
20260505012314 57 327 0.0 2.0 0.00 0.00 0.00 77 1011.8
20260505012214 57 327 0.0 2.0 0.00 0.00 0.00 77 1011.8
20260505012117 57 327 0.0 2.0 0.00 0.00 0.00 77 1011.8
20260505012017 57 327 0.0 1.0 0.00 0.00 0.00 77 1011.7
20260505011922 57 327 0.0 1.0 0.00 0.00 0.00 77 1011.8
20260505011808 57 327 0.0 1.0 0.00 0.00 0.00 77 1011.8
20260505011711 57 327 0.0 3.0 0.00 0.00 0.00 77 1011.9
20260505011612 57 327 0.0 3.0 0.00 0.00 0.00 77 1011.9
20260505011516 57 327 0.0 3.0 0.00 0.00 0.00 77 1011.9
20260505011406 57 327 0.0 4.0 0.00 0.00 0.00 77 1011.9
20260505011305 57 327 1.0 4.0 0.00 0.00 0.00 77 1011.8
20260505011208 57 327 1.0 7.0 0.00 0.00 0.00 77 1011.9
20260505011121 57 327 1.0 7.0 0.00 0.00 0.00 77 1011.9
20260505011014 57 327 2.0 7.0 0.00 0.00 0.00 77 1011.9
20260505010905 57 327 2.0 7.0 0.00 0.00 0.00 77 1011.8
20260505010806 57 327 3.0 9.0 0.00 0.00 0.00 77 1011.9
20260505010707 57 327 3.0 9.0 0.00 0.00 0.00 77 1011.8
20260505010502 57 326 3.0 9.0 0.00 0.00 0.00 77 1011.8
20260505010403 57 330 4.0 9.0 0.00 0.00 0.00 77 1011.8
20260505010317 57 332 4.0 9.0 0.00 0.00 0.00 77 1011.8
20260505010240 57 325 3.0 9.0 0.00 0.00 0.00 77 1011.7
20260505010206 57 332 3.0 9.0 0.00 0.00 0.00 77 1011.7
20260505010055 57 333 3.0 9.0 0.00 0.00 0.00 77 1011.7
20260505010007 57 334 3.0 9.0 0.00 0.00 0.00 77 1011.7
20260505005926 57 319 2.0 8.0 0.00 0.00 0.00 77 1011.7
20260505005852 57 326 2.0 8.0 0.00 0.00 0.00 77 1011.8
20260505005817 57 322 2.0 7.0 0.00 0.00 0.00 77 1011.8
20260505005459 57 329 2.0 7.0 0.00 0.00 0.00 77 1011.8
20260505005355 57 327 2.0 7.0 0.00 0.00 0.00 77 1011.8
20260505005257 57 288 2.0 6.0 0.00 0.00 0.00 77 1011.8
20260505005206 57 329 3.0 6.0 0.00 0.00 0.00 77 1011.8
20260505005123 57 329 3.0 9.0 0.00 0.00 0.00 77 1011.8
20260505005032 57 293 3.0 9.0 0.00 0.00 0.00 76 1011.9
20260505004954 57 319 4.0 9.0 0.00 0.00 0.00 76 1011.9
20260505004920 57 319 4.0 9.0 0.00 0.00 0.00 76 1011.9
20260505004839 58 307 4.0 9.0 0.00 0.00 0.00 76 1011.8
20260505004544 58 324 5.0 10.0 0.00 0.00 0.00 76 1011.9
20260505004446 58 324 5.0 10.0 0.00 0.00 0.00 76 1011.9
20260505004341 58 326 5.0 10.0 0.00 0.00 0.00 76 1011.8
20260505004251 58 331 5.0 10.0 0.00 0.00 0.00 76 1011.8
20260505004214 58 329 5.0 10.0 0.00 0.00 0.00 76 1011.8
20260505004126 58 327 5.0 11.0 0.00 0.00 0.00 76 1011.8
20260505004030 58 328 6.0 11.0 0.00 0.00 0.00 76 1011.8
20260505003947 58 329 6.0 11.0 0.00 0.00 0.00 76 1011.8
20260505003912 58 326 6.0 11.0 0.00 0.00 0.00 76 1011.9
20260505003831 58 321 6.0 11.0 0.00 0.00 0.00 76 1011.8
20260505003535 58 342 6.0 11.0 0.00 0.00 0.00 76 1011.8
20260505003434 58 324 6.0 11.0 0.00 0.00 0.00 76 1011.8
20260505003341 58 318 6.0 12.0 0.00 0.00 0.00 75 1011.9
20260505003251 58 327 7.0 12.0 0.00 0.00 0.00 75 1011.9
20260505003208 58 338 7.0 12.0 0.00 0.00 0.00 75 1011.9
20260505003113 58 333 6.0 12.0 0.00 0.00 0.00 75 1011.8
20260505003027 58 324 6.0 12.0 0.00 0.00 0.00 75 1011.9
20260505002945 58 329 6.0 12.0 0.00 0.00 0.00 75 1011.8
20260505002907 58 326 6.0 12.0 0.00 0.00 0.00 75 1011.9
20260505002824 58 333 6.0 12.0 0.00 0.00 0.00 75 1011.9
20260505002526 58 328 6.0 12.0 0.00 0.00 0.00 75 1011.9
20260505002425 58 329 6.0 12.0 0.00 0.00 0.00 75 1011.9
20260505002323 58 324 6.0 11.0 0.00 0.00 0.00 75 1011.9
20260505002224 58 331 6.0 11.0 0.00 0.00 0.00 75 1011.9
20260505002120 58 333 5.0 11.0 0.00 0.00 0.00 75 1011.9
20260505002020 58 321 5.0 11.0 0.00 0.00 0.00 75 1011.9
20260505001921 58 333 5.0 11.0 0.00 0.00 0.00 75 1011.9
20260505001821 58 319 5.0 11.0 0.00 0.00 0.00 75 1012.0
20260505001719 58 334 5.0 11.0 0.00 0.00 0.00 75 1012.0
20260505001619 58 330 5.0 11.0 0.00 0.00 0.00 75 1012.0
20260505001518 58 324 5.0 11.0 0.00 0.00 0.00 75 1012.0
20260505001416 58 326 5.0 10.0 0.00 0.00 0.00 75 1012.0
20260505001318 58 337 5.0 10.0 0.00 0.00 0.00 75 1012.0
20260505001218 58 318 5.0 10.0 0.00 0.00 0.00 75 1012.1
20260505001117 58 327 5.0 10.0 0.00 0.00 0.00 75 1012.1
20260505001017 58 331 5.0 10.0 0.00 0.00 0.00 75 1012.1
20260505000916 58 333 4.0 9.0 0.00 0.00 0.00 75 1012.1
20260505000813 58 338 4.0 9.0 0.00 0.00 0.00 75 1012.1
20260505000716 58 331 4.0 9.0 0.00 0.00 0.00 75 1012.1
20260505000614 58 321 3.0 9.0 0.00 0.00 0.00 75 1012.1
20260505000517 58 329 3.0 9.0 0.00 0.00 0.00 75 1012.1
20260505000413 58 332 2.0 9.0 0.00 0.00 0.00 75 1012.2
20260505000310 58 331 2.0 9.0 0.00 0.00 0.00 75 1012.2
20260505000211 58 333 2.0 8.0 0.00 0.00 0.00 75 1012.2
20260505000120 58 332 2.0 8.0 0.00 0.00 0.00 75 1012.2
20260505000011 58 329 2.0 8.0 0.00 0.00 0.00 75 1012.2
20260504235903 58 330 2.0 8.0 0.00 0.00 0.00 75 1012.2
20260504235807 58 330 2.0 8.0 0.00 0.00 0.00 75 1012.2
20260504235703 58 333 2.0 8.0 0.00 0.00 0.00 75 1012.2
20260504235600 58 331 2.0 7.0 0.00 0.00 0.00 75 1012.2
20260504235500 58 332 2.0 7.0 0.00 0.00 0.00 75 1012.3
20260504235404 58 326 2.0 7.0 0.00 0.00 0.00 75 1012.3
20260504235300 58 330 2.0 7.0 0.00 0.00 0.00 74 1012.3
20260504235157 58 321 2.0 7.0 0.00 0.00 0.00 75 1012.3
20260504235105 58 317 2.0 7.0 0.00 0.00 0.00 75 1012.3
20260504234959 58 350 2.0 7.0 0.00 0.00 0.00 74 1012.3
20260504234857 58 331 1.0 7.0 0.00 0.00 0.00 74 1012.3
20260504234755 58 320 1.0 7.0 0.00 0.00 0.00 74 1012.3
20260504234654 58 318 1.0 5.0 0.00 0.00 0.00 74 1012.2
20260504234556 58 321 1.0 5.0 0.00 0.00 0.00 74 1012.2
20260504234453 58 335 1.0 5.0 0.00 0.00 0.00 74 1012.3
20260504234349 58 310 1.0 3.0 0.00 0.00 0.00 74 1012.3
20260504234249 58 300 1.0 3.0 0.00 0.00 0.00 74 1012.3
20260504234215 58 248 1.0 4.0 0.00 0.00 0.00 73 1012.3
20260504234133 58 248 1.0 4.0 0.00 0.00 0.00 73 1012.3
20260504234048 59 248 1.0 4.0 0.00 0.00 0.00 73 1012.3
20260504234018 58 248 1.0 4.0 0.00 0.00 0.00 73 1012.3
20260504233939 58 274 1.0 4.0 0.00 0.00 0.00 73 1012.3
20260504233644 58 274 1.0 4.0 0.00 0.00 0.00 73 1012.3
20260504233606 58 218 1.0 4.0 0.00 0.00 0.00 74 1012.3
20260504233517 58 274 1.0 4.0 0.00 0.00 0.00 74 1012.3
20260504233444 58 274 1.0 4.0 0.00 0.00 0.00 74 1012.3
20260504233355 58 274 0.0 4.0 0.00 0.00 0.00 74 1012.3
20260504233320 58 255 0.0 2.0 0.00 0.00 0.00 74 1012.3
20260504233035 58 319 0.0 2.0 0.00 0.00 0.00 74 1012.3
20260504232934 58 318 0.0 2.0 0.00 0.00 0.00 74 1012.3
20260504232831 58 314 0.0 2.0 0.00 0.00 0.00 74 1012.4
20260504232732 58 312 0.0 2.0 0.00 0.00 0.00 73 1012.3
20260504232632 58 312 0.0 2.0 0.00 0.00 0.00 73 1012.3
20260504232531 58 310 0.0 2.0 0.00 0.00 0.00 73 1012.3
20260504232427 58 310 0.0 2.0 0.00 0.00 0.00 73 1012.3
20260504232325 58 310 0.0 2.0 0.00 0.00 0.00 73 1012.4
20260504232226 59 310 0.0 2.0 0.00 0.00 0.00 73 1012.3
20260504232130 59 309 0.0 1.0 0.00 0.00 0.00 73 1012.3
20260504232051 59 309 0.0 1.0 0.00 0.00 0.00 73 1012.4
20260504232006 59 309 0.0 1.0 0.00 0.00 0.00 73 1012.4
20260504231937 59 309 0.0 1.0 0.00 0.00 0.00 73 1012.3
20260504231859 59 309 0.0 1.0 0.00 0.00 0.00 73 1012.4
20260504231819 59 309 0.0 1.0 0.00 0.00 0.00 72 1012.4
20260504231536 59 309 0.0 1.0 0.00 0.00 0.00 72 1012.4
20260504231455 59 309 0.0 1.0 0.00 0.00 0.00 72 1012.3
20260504231425 59 309 0.0 2.0 0.00 0.00 0.00 72 1012.4
20260504231349 59 309 0.0 2.0 0.00 0.00 0.00 72 1012.4
20260504231312 59 309 0.0 2.0 0.00 0.00 0.00 72 1012.4
20260504231016 59 309 1.0 2.0 0.00 0.00 0.00 72 1012.4
20260504230908 59 309 1.0 3.0 0.00 0.00 0.00 72 1012.4
20260504230812 59 309 1.0 3.0 0.00 0.00 0.00 73 1012.5
20260504230712 59 309 1.0 3.0 0.00 0.00 0.00 73 1012.5
20260504230608 59 309 1.0 3.0 0.00 0.00 0.00 73 1012.5
20260504230516 59 309 1.0 3.0 0.00 0.00 0.00 73 1012.4
20260504230404 59 309 1.0 3.0 0.00 0.00 0.00 73 1012.5
20260504230303 58 323 1.0 3.0 0.00 0.00 0.00 73 1012.5
20260504230202 58 323 1.0 3.0 0.00 0.00 0.00 73 1012.6
20260504230106 58 323 1.0 4.0 0.00 0.00 0.00 73 1012.6
20260504225959 58 323 1.0 4.0 0.00 0.00 0.00 73 1012.5
20260504225859 58 322 1.0 4.0 0.00 0.00 0.00 73 1012.6
20260504225802 58 302 1.0 4.0 0.00 0.00 0.00 73 1012.5
20260504225700 58 302 1.0 4.0 0.00 0.00 0.00 73 1012.5
20260504225552 58 302 0.0 4.0 0.00 0.00 0.00 73 1012.5
20260504225453 58 305 0.0 4.0 0.00 0.00 0.00 73 1012.5
20260504225352 58 305 0.0 4.0 0.00 0.00 0.00 73 1012.5
20260504225253 58 305 0.0 4.0 0.00 0.00 0.00 73 1012.5
20260504225144 58 305 0.0 4.0 0.00 0.00 0.00 73 1012.5
20260504224938 58 347 0.0 3.0 0.00 0.00 0.00 73 1012.6
20260504224836 58 347 0.0 3.0 0.00 0.00 0.00 72 1012.6
20260504224736 59 2 0.0 2.0 0.00 0.00 0.00 72 1012.6
20260504224636 59 2 0.0 2.0 0.00 0.00 0.00 72 1012.6
20260504224434 59 2 0.0 2.0 0.00 0.00 0.00 72 1012.6
20260504224333 59 2 0.0 3.0 0.00 0.00 0.00 71 1012.7
20260504224233 59 2 0.0 3.0 0.00 0.00 0.00 71 1012.7
20260504224135 59 2 1.0 3.0 0.00 0.00 0.00 71 1012.6
20260504223932 59 325 1.0 3.0 0.00 0.00 0.00 71 1012.7
20260504223833 59 325 1.0 4.0 0.00 0.00 0.00 71 1012.7
20260504223731 59 325 1.0 6.0 0.00 0.00 0.00 71 1012.7
20260504223625 59 325 2.0 6.0 0.00 0.00 0.00 71 1012.7
20260504223425 59 322 2.0 6.0 0.00 0.00 0.00 70 1012.6
20260504223324 59 321 2.0 6.0 0.00 0.00 0.00 70 1012.7
20260504223225 59 321 2.0 6.0 0.00 0.00 0.00 70 1012.7
20260504223144 60 285 2.0 6.0 0.00 0.00 0.00 70 1012.6
20260504223021 60 285 2.0 6.0 0.00 0.00 0.00 70 1012.6
20260504222945 60 324 2.0 6.0 0.00 0.00 0.00 70 1012.6
20260504222911 60 288 2.0 5.0 0.00 0.00 0.00 70 1012.7
20260504222840 60 329 1.0 5.0 0.00 0.00 0.00 70 1012.7
20260504222807 60 338 1.0 5.0 0.00 0.00 0.00 69 1012.7
20260504222505 60 345 1.0 5.0 0.00 0.00 0.00 69 1012.7
20260504222429 60 345 1.0 5.0 0.00 0.00 0.00 69 1012.7
20260504222341 60 345 1.0 5.0 0.00 0.00 0.00 69 1012.7
20260504222308 60 293 1.0 5.0 0.00 0.00 0.00 69 1012.6
20260504222233 60 301 0.0 5.0 0.00 0.00 0.00 69 1012.7
20260504221907 60 310 0.0 5.0 0.00 0.00 0.00 69 1012.7
20260504221805 60 319 0.0 3.0 0.00 0.00 0.00 69 1012.6
20260504221706 60 319 0.0 3.0 0.00 0.00 0.00 69 1012.6
20260504221605 60 319 0.0 3.0 0.00 0.00 0.00 69 1012.7
20260504221515 60 319 0.0 3.0 0.00 0.00 0.00 69 1012.7
20260504221404 60 319 0.0 3.0 0.00 0.00 0.00 69 1012.7
20260504221303 60 319 0.0 3.0 0.00 0.00 0.00 69 1012.7
20260504221201 60 319 0.0 4.0 0.00 0.00 0.00 68 1012.7
20260504221059 60 319 0.0 4.0 0.00 0.00 0.00 68 1012.7
20260504220855 60 319 1.0 5.0 0.00 0.00 0.00 68 1012.7
20260504220755 60 319 1.0 6.0 0.00 0.00 0.00 68 1012.7
20260504220655 60 319 1.0 6.0 0.00 0.00 0.00 68 1012.7
20260504220551 60 319 1.0 6.0 0.00 0.00 0.00 68 1012.7
20260504220341 60 319 2.0 6.0 0.00 0.00 0.00 67 1012.7
20260504220240 60 296 1.0 6.0 0.00 0.00 0.00 67 1012.7
20260504220139 60 332 1.0 6.0 0.00 0.00 0.00 67 1012.8
20260504220039 60 330 2.0 7.0 0.00 0.00 0.00 66 1012.7
20260504215934 60 329 2.0 7.0 0.00 0.00 0.00 66 1012.8
20260504215832 60 329 2.0 7.0 0.00 0.00 0.00 66 1012.7
20260504215734 60 330 2.0 7.0 0.00 0.00 0.00 66 1012.8
20260504215634 60 319 1.0 7.0 0.00 0.00 0.00 66 1012.7
20260504215535 60 288 1.0 7.0 0.00 0.00 0.00 65 1012.7
20260504215433 61 296 1.0 7.0 0.00 0.00 0.00 64 1012.7
20260504215329 61 317 2.0 7.0 0.00 0.00 0.00 64 1012.8
20260504215233 61 317 2.0 7.0 0.00 0.00 0.00 64 1012.7
20260504215129 61 332 2.0 7.0 0.00 0.00 0.00 64 1012.8
20260504215031 61 318 1.0 5.0 0.00 0.00 0.00 63 1012.8
20260504214927 61 304 1.0 5.0 0.00 0.00 0.00 63 1012.7
20260504214830 61 337 1.0 4.0 0.00 0.00 0.00 63 1012.7
20260504214730 61 318 1.0 4.0 0.00 0.00 0.00 62 1012.7
20260504214626 61 332 1.0 4.0 0.00 0.00 0.00 62 1012.7
20260504214534 61 332 1.0 4.0 0.00 0.00 0.00 62 1012.8
20260504214426 61 332 1.0 4.0 0.00 0.00 0.00 62 1012.7
20260504214326 61 332 0.0 4.0 0.00 0.00 0.00 62 1012.8
20260504214231 61 336 0.0 3.0 0.00 0.00 0.00 62 1012.8
20260504214121 61 17 0.0 3.0 0.00 0.00 0.00 61 1012.8
20260504214023 61 17 0.0 3.0 0.00 0.00 0.00 61 1012.8
20260504213918 61 17 0.0 3.0 0.00 0.00 0.00 61 1012.8
20260504213822 61 17 0.0 3.0 0.00 0.00 0.00 61 1012.8
20260504213717 61 17 0.0 3.0 0.00 0.00 0.00 61 1012.8
20260504213612 61 17 0.0 3.0 0.00 0.00 0.00 61 1012.8
20260504213521 61 17 0.0 3.0 0.00 0.00 0.00 61 1012.8
20260504213412 61 17 0.0 3.0 0.00 0.00 0.00 61 1012.8
20260504213315 61 17 0.0 3.0 0.00 0.00 0.00 61 1012.8
20260504213212 61 17 0.0 3.0 0.00 0.00 0.00 61 1012.8
20260504213114 61 325 0.0 2.0 0.00 0.00 0.00 61 1012.8
20260504213023 61 324 0.0 2.0 0.00 0.00 0.00 61 1012.8
20260504212912 61 324 0.0 2.0 0.00 0.00 0.00 61 1012.8
20260504212813 61 324 0.0 3.0 0.00 0.00 0.00 61 1012.8
20260504212712 61 324 0.0 3.0 0.00 0.00 0.00 61 1012.8
20260504212610 61 324 1.0 3.0 0.00 0.00 0.00 61 1012.8
20260504212523 62 324 1.0 5.0 0.00 0.00 0.00 61 1012.8
20260504212415 62 324 1.0 5.0 0.00 0.00 0.00 60 1012.9
20260504212310 62 324 1.0 5.0 0.00 0.00 0.00 60 1012.9
20260504212211 62 324 1.0 5.0 0.00 0.00 0.00 60 1012.8
20260504212112 62 324 1.0 5.0 0.00 0.00 0.00 60 1012.8
20260504212022 62 324 1.0 5.0 0.00 0.00 0.00 60 1012.8
20260504211910 62 324 1.0 5.0 0.00 0.00 0.00 60 1012.8
20260504211814 62 321 1.0 5.0 0.00 0.00 0.00 60 1012.8
20260504211708 62 302 1.0 5.0 0.00 0.00 0.00 60 1012.8
20260504211604 62 322 1.0 5.0 0.00 0.00 0.00 60 1012.8
20260504211524 62 322 0.0 3.0 0.00 0.00 0.00 60 1012.8
20260504211409 62 331 0.0 3.0 0.00 0.00 0.00 60 1012.8
20260504211308 61 331 0.0 3.0 0.00 0.00 0.00 60 1012.8
20260504211205 61 331 0.0 3.0 0.00 0.00 0.00 60 1012.9
20260504211105 61 333 0.0 3.0 0.00 0.00 0.00 60 1012.8
20260504211012 61 333 0.0 3.0 0.00 0.00 0.00 61 1012.8
20260504210904 61 333 0.0 1.0 0.00 0.00 0.00 61 1012.9
20260504210805 61 333 0.0 1.0 0.00 0.00 0.00 61 1012.8
20260504210705 61 333 0.0 1.0 0.00 0.00 0.00 61 1012.8
20260504210606 61 333 0.0 2.0 0.00 0.00 0.00 60 1012.9
20260504210516 62 333 0.0 2.0 0.00 0.00 0.00 60 1012.9
20260504210404 62 333 0.0 2.0 0.00 0.00 0.00 60 1012.8
20260504210305 62 333 0.0 2.0 0.00 0.00 0.00 60 1012.9
20260504210205 62 333 0.0 2.0 0.00 0.00 0.00 60 1012.9
20260504210106 62 333 0.0 2.0 0.00 0.00 0.00 60 1012.9
20260504210009 62 333 0.0 3.0 0.00 0.00 0.00 60 1012.9
20260504205908 62 333 0.0 3.0 0.00 0.00 0.00 60 1012.9
20260504205803 62 333 0.0 3.0 0.00 0.00 0.00 60 1012.8
20260504205703 62 333 0.0 3.0 0.00 0.00 0.00 60 1012.9
20260504205602 62 332 0.0 3.0 0.00 0.00 0.00 60 1012.9
20260504205510 62 332 0.0 3.0 0.00 0.00 0.00 60 1012.9
20260504205422 62 332 0.0 3.0 0.00 0.00 0.00 60 1012.9
20260504205354 62 332 0.0 3.0 0.00 0.00 0.00 60 1012.9
20260504205323 62 332 0.0 3.0 0.00 0.00 0.00 60 1012.9
20260504205251 62 332 0.0 3.0 0.00 0.00 0.00 60 1012.9
20260504205209 62 332 0.0 2.0 0.00 0.00 0.00 60 1012.9
20260504204904 62 332 0.0 2.0 0.00 0.00 0.00 60 1012.9
20260504204801 62 331 0.0 2.0 0.00 0.00 0.00 60 1012.9
20260504204708 62 331 0.0 2.0 0.00 0.00 0.00 60 1012.9
20260504204602 62 331 0.0 3.0 0.00 0.00 0.00 60 1012.9
20260504204516 62 331 0.0 3.0 0.00 0.00 0.00 60 1012.9
20260504204437 62 331 0.0 3.0 0.00 0.00 0.00 60 1012.8
20260504204403 62 331 0.0 3.0 0.00 0.00 0.00 59 1012.8
20260504204335 62 331 0.0 3.0 0.00 0.00 0.00 59 1012.9
20260504204256 62 331 1.0 3.0 0.00 0.00 0.00 59 1012.8
20260504204205 62 331 1.0 4.0 0.00 0.00 0.00 59 1012.8
20260504203856 62 331 1.0 5.0 0.00 0.00 0.00 59 1012.9
20260504203800 62 331 2.0 5.0 0.00 0.00 0.00 58 1012.8
20260504203702 62 329 2.0 5.0 0.00 0.00 0.00 58 1012.8
20260504203555 62 322 2.0 5.0 0.00 0.00 0.00 58 1012.8
20260504203500 63 322 2.0 5.0 0.00 0.00 0.00 58 1012.8
20260504203359 63 322 2.0 5.0 0.00 0.00 0.00 57 1012.8
20260504203303 63 322 2.0 5.0 0.00 0.00 0.00 57 1012.9
20260504203201 63 321 2.0 5.0 0.00 0.00 0.00 57 1012.8
20260504203103 63 331 2.0 5.0 0.00 0.00 0.00 57 1012.9
20260504203000 63 327 2.0 5.0 0.00 0.00 0.00 57 1012.8
20260504202857 63 329 2.0 5.0 0.00 0.00 0.00 57 1012.9
20260504202759 63 325 2.0 5.0 0.00 0.00 0.00 57 1012.8
20260504202658 63 318 2.0 5.0 0.00 0.00 0.00 57 1012.8
20260504202558 63 313 2.0 5.0 0.00 0.00 0.00 57 1012.8
20260504202501 63 323 2.0 4.0 0.00 0.00 0.00 57 1012.9
20260504202359 63 305 2.0 4.0 0.00 0.00 0.00 57 1012.9
20260504202256 63 297 2.0 4.0 0.00 0.00 0.00 57 1012.9
20260504202156 63 295 2.0 4.0 0.00 0.00 0.00 57 1012.9
20260504202100 63 319 2.0 4.0 0.00 0.00 0.00 57 1012.9
20260504201858 63 322 2.0 4.0 0.00 0.00 0.00 57 1012.9
20260504201753 63 322 2.0 4.0 0.00 0.00 0.00 57 1012.9
20260504201657 63 298 2.0 5.0 0.00 0.00 0.00 57 1012.9
20260504201557 63 317 2.0 5.0 0.00 0.00 0.00 57 1012.9
20260504201457 63 317 2.0 5.0 0.00 0.00 0.00 57 1012.9
20260504201354 63 315 2.0 5.0 0.00 0.00 0.00 57 1012.9
20260504201254 63 291 2.0 5.0 0.00 0.00 0.00 57 1013.0
20260504201157 63 326 2.0 5.0 0.00 0.00 0.00 57 1012.9
20260504201051 63 329 2.0 5.0 0.00 0.00 0.00 57 1013.0
20260504200855 63 328 2.0 5.0 0.00 0.00 0.00 57 1012.9
20260504200754 63 318 2.0 6.0 0.00 0.00 0.00 58 1012.9
20260504200651 63 277 2.0 6.0 0.00 0.00 0.00 58 1012.9
20260504200548 63 317 2.0 6.0 0.00 0.00 0.00 58 1012.9
20260504200347 63 319 3.0 8.0 0.00 0.00 0.00 57 1012.9
20260504200244 63 295 3.0 8.0 0.00 0.00 0.00 58 1012.9
20260504200148 62 321 3.0 8.0 0.00 0.00 0.00 58 1012.9
20260504200055 63 321 3.0 8.0 0.00 0.00 0.00 58 1012.9
20260504195946 63 299 3.0 8.0 0.00 0.00 0.00 58 1012.9
20260504195847 62 324 3.0 8.0 0.00 0.00 0.00 58 1012.9
20260504195743 62 325 4.0 8.0 0.00 0.00 0.00 58 1012.9
20260504195645 62 323 4.0 8.0 0.00 0.00 0.00 58 1012.9
20260504195542 62 296 4.0 8.0 0.00 0.00 0.00 59 1012.9
20260504195445 62 330 4.0 8.0 0.00 0.00 0.00 59 1013.0
20260504195339 62 325 4.0 6.0 0.00 0.00 0.00 59 1012.9
20260504195239 62 326 4.0 6.0 0.00 0.00 0.00 59 1012.9
20260504195141 62 328 4.0 6.0 0.00 0.00 0.00 59 1012.9
20260504195041 62 328 4.0 6.0 0.00 0.00 0.00 58 1012.9
20260504194835 62 330 4.0 6.0 0.00 0.00 0.00 58 1012.9
20260504194733 62 322 3.0 6.0 0.00 0.00 0.00 58 1012.9
20260504194628 62 326 3.0 6.0 0.00 0.00 0.00 58 1012.9
20260504194536 62 324 3.0 5.0 0.00 0.00 0.00 58 1012.9
20260504194425 62 325 3.0 5.0 0.00 0.00 0.00 58 1012.9
20260504194324 63 324 3.0 5.0 0.00 0.00 0.00 58 1012.9
20260504194227 63 323 3.0 5.0 0.00 0.00 0.00 58 1013.0
20260504194121 63 331 3.0 5.0 0.00 0.00 0.00 58 1012.9
20260504194020 63 326 3.0 5.0 0.00 0.00 0.00 58 1012.9
20260504193918 63 331 3.0 5.0 0.00 0.00 0.00 58 1012.9
20260504193817 63 331 3.0 5.0 0.00 0.00 0.00 58 1013.0
20260504193716 63 333 3.0 5.0 0.00 0.00 0.00 58 1013.0
20260504193617 63 328 3.0 5.0 0.00 0.00 0.00 58 1013.0
20260504193522 63 327 3.0 5.0 0.00 0.00 0.00 57 1013.0
20260504193413 63 326 3.0 5.0 0.00 0.00 0.00 57 1013.0
20260504193318 63 331 3.0 5.0 0.00 0.00 0.00 57 1013.0
20260504193206 63 331 3.0 5.0 0.00 0.00 0.00 57 1013.0
20260504193106 63 333 3.0 5.0 0.00 0.00 0.00 57 1013.1
20260504193018 63 329 3.0 5.0 0.00 0.00 0.00 56 1013.0
20260504192906 63 329 3.0 6.0 0.00 0.00 0.00 56 1013.0
20260504192808 63 325 3.0 6.0 0.00 0.00 0.00 56 1013.0
20260504192701 64 319 2.0 6.0 0.00 0.00 0.00 56 1013.0
20260504192601 64 327 2.0 6.0 0.00 0.00 0.00 56 1013.1
20260504192457 64 323 2.0 6.0 0.00 0.00 0.00 55 1013.1
20260504192358 64 329 2.0 6.0 0.00 0.00 0.00 55 1013.1
20260504192304 64 293 2.0 6.0 0.00 0.00 0.00 55 1013.1
20260504192158 64 284 2.0 6.0 0.00 0.00 0.00 55 1013.1
20260504192105 64 308 2.0 6.0 0.00 0.00 0.00 55 1013.2
20260504191957 64 303 1.0 6.0 0.00 0.00 0.00 55 1013.1
20260504191857 64 299 1.0 5.0 0.00 0.00 0.00 55 1013.2
20260504191758 64 299 2.0 5.0 0.00 0.00 0.00 55 1013.2
20260504191653 64 285 2.0 5.0 0.00 0.00 0.00 55 1013.1
20260504191551 64 281 2.0 5.0 0.00 0.00 0.00 55 1013.1
20260504191450 64 280 2.0 5.0 0.00 0.00 0.00 54 1013.1
20260504191352 64 279 2.0 5.0 0.00 0.00 0.00 54 1013.1
20260504191250 64 276 2.0 5.0 0.00 0.00 0.00 54 1013.1
20260504191150 64 270 2.0 5.0 0.00 0.00 0.00 54 1013.1
20260504191051 64 281 2.0 4.0 0.00 0.00 0.00 54 1013.1
20260504190944 64 280 2.0 5.0 0.00 0.00 0.00 54 1013.1
20260504190841 64 288 2.0 5.0 0.00 0.00 0.00 54 1013.1
20260504190739 64 286 2.0 5.0 0.00 0.00 0.00 54 1013.1
20260504190638 64 298 3.0 5.0 0.00 0.00 0.00 54 1013.2
20260504190539 64 307 3.0 5.0 0.00 0.00 0.00 54 1013.2
20260504190338 65 280 3.0 6.0 0.00 0.00 0.00 54 1013.1
20260504190233 65 285 3.0 6.0 0.00 0.00 0.00 54 1013.1
20260504190133 65 287 3.0 6.0 0.00 0.00 0.00 54 1013.0
20260504190033 65 276 3.0 6.0 0.00 0.00 0.00 54 1013.1
20260504185932 65 289 3.0 6.0 0.00 0.00 0.00 53 1013.1
20260504185833 65 284 3.0 6.0 0.00 0.00 0.00 54 1013.0
20260504185732 65 283 2.0 6.0 0.00 0.00 0.00 53 1013.0
20260504185630 65 298 2.0 6.0 0.00 0.00 0.00 53 1013.0
20260504185525 65 293 2.0 4.0 0.00 0.00 0.00 53 1013.0
20260504185426 65 327 2.0 4.0 0.00 0.00 0.00 54 1013.0
20260504185324 65 328 2.0 4.0 0.00 0.00 0.00 53 1013.0
20260504185226 65 329 2.0 4.0 0.00 0.00 0.00 53 1012.9
20260504185121 65 329 2.0 4.0 0.00 0.00 0.00 53 1012.9
20260504185023 65 329 2.0 4.0 0.00 0.00 0.00 53 1013.0
20260504184816 65 329 2.0 4.0 0.00 0.00 0.00 53 1013.0
20260504184716 65 329 2.0 4.0 0.00 0.00 0.00 53 1013.0
20260504184629 65 329 2.0 4.0 0.00 0.00 0.00 53 1013.0
20260504184548 65 329 2.0 4.0 0.00 0.00 0.00 53 1013.0
20260504184504 65 329 2.0 4.0 0.00 0.00 0.00 53 1013.1
20260504184419 65 330 2.0 4.0 0.00 0.00 0.00 53 1013.0
20260504184347 65 329 2.0 4.0 0.00 0.00 0.00 53 1013.1
20260504184315 65 328 2.0 4.0 0.00 0.00 0.00 53 1013.0
20260504184021 65 327 2.0 4.0 0.00 0.00 0.00 53 1013.0
20260504183929 65 326 1.0 4.0 0.00 0.00 0.00 53 1013.0
20260504183841 65 326 1.0 4.0 0.00 0.00 0.00 53 1013.0
20260504183800 65 326 2.0 4.0 0.00 0.00 0.00 53 1013.0
20260504183730 65 326 2.0 4.0 0.00 0.00 0.00 53 1013.0
20260504183644 65 326 2.0 4.0 0.00 0.00 0.00 53 1013.0
20260504183356 65 324 2.0 4.0 0.00 0.00 0.00 53 1013.0
20260504183255 65 324 2.0 5.0 0.00 0.00 0.00 53 1013.1
20260504183157 65 306 2.0 5.0 0.00 0.00 0.00 53 1013.1
20260504183059 65 305 2.0 5.0 0.00 0.00 0.00 53 1013.0
20260504182956 65 305 2.0 5.0 0.00 0.00 0.00 53 1013.0
20260504182854 65 302 2.0 5.0 0.00 0.00 0.00 53 1013.0
20260504182751 65 302 2.0 5.0 0.00 0.00 0.00 53 1013.0
20260504182650 65 276 2.0 5.0 0.00 0.00 0.00 53 1013.0
20260504182543 65 295 2.0 5.0 0.00 0.00 0.00 53 1013.1
20260504182443 65 297 2.0 5.0 0.00 0.00 0.00 53 1013.0
20260504182342 65 274 2.0 5.0 0.00 0.00 0.00 53 1013.0
20260504182234 65 289 2.0 5.0 0.00 0.00 0.00 53 1013.1
20260504182132 65 289 2.0 5.0 0.00 0.00 0.00 53 1013.1
20260504182037 65 291 2.0 5.0 0.00 0.00 0.00 53 1013.1
20260504181935 65 294 3.0 5.0 0.00 0.00 0.00 53 1013.0
20260504181832 65 284 3.0 5.0 0.00 0.00 0.00 53 1013.0
20260504181735 65 281 3.0 5.0 0.00 0.00 0.00 53 1013.0
20260504181634 65 277 3.0 5.0 0.00 0.00 0.00 53 1013.0
20260504181532 65 274 3.0 6.0 0.00 0.00 0.00 53 1013.0
20260504181433 65 279 3.0 6.0 0.00 0.00 0.00 53 1013.0
20260504181332 65 278 3.0 6.0 0.00 0.00 0.00 53 1013.1
20260504181232 66 277 4.0 6.0 0.00 0.00 0.00 53 1013.1
20260504181130 66 274 4.0 6.0 0.00 0.00 0.00 53 1013.1
20260504181036 66 282 3.0 6.0 0.00 0.00 0.00 53 1013.1
20260504180927 66 280 3.0 6.0 0.00 0.00 0.00 53 1013.1
20260504180826 66 280 3.0 6.0 0.00 0.00 0.00 52 1013.1
20260504180725 66 284 3.0 6.0 0.00 0.00 0.00 52 1013.1
20260504180625 66 288 3.0 6.0 0.00 0.00 0.00 52 1013.0
20260504180523 66 292 3.0 6.0 0.00 0.00 0.00 52 1013.0
20260504180424 66 284 3.0 6.0 0.00 0.00 0.00 52 1013.0
20260504180324 66 272 2.0 6.0 0.00 0.00 0.00 52 1013.0
20260504180220 66 278 2.0 5.0 0.00 0.00 0.00 52 1013.0
20260504180119 66 281 2.0 5.0 0.00 0.00 0.00 52 1012.9
20260504180027 66 294 2.0 5.0 0.00 0.00 0.00 52 1013.0
20260504175915 66 293 2.0 5.0 0.00 0.00 0.00 52 1012.9
20260504175813 66 314 2.0 6.0 0.00 0.00 0.00 51 1012.8
20260504175716 66 302 2.0 6.0 0.00 0.00 0.00 52 1012.8
20260504175613 66 320 3.0 6.0 0.00 0.00 0.00 52 1012.8
20260504175523 66 320 3.0 6.0 0.00 0.00 0.00 51 1012.8
20260504175410 66 318 3.0 6.0 0.00 0.00 0.00 52 1012.7
20260504175310 66 323 3.0 6.0 0.00 0.00 0.00 52 1012.8
20260504175207 66 323 3.0 6.0 0.00 0.00 0.00 52 1012.7
20260504175107 66 321 3.0 6.0 0.00 0.00 0.00 52 1012.8
20260504175012 66 326 3.0 6.0 0.00 0.00 0.00 52 1012.7
20260504174903 66 324 3.0 7.0 0.00 0.00 0.00 52 1012.7
20260504174805 66 326 3.0 7.0 0.00 0.00 0.00 52 1012.7
20260504174704 66 329 3.0 7.0 0.00 0.00 0.00 52 1012.7
20260504174610 66 332 3.0 7.0 0.00 0.00 0.00 52 1012.6
20260504174515 66 331 3.0 7.0 0.00 0.00 0.00 51 1012.7
20260504174403 66 331 3.0 7.0 0.00 0.00 0.00 51 1012.7
20260504174304 66 333 3.0 7.0 0.00 0.00 0.00 51 1012.7
20260504174205 66 325 3.0 7.0 0.00 0.00 0.00 51 1012.7
20260504174110 66 328 3.0 7.0 0.00 0.00 0.00 51 1012.7
20260504174011 66 321 3.0 7.0 0.00 0.00 0.00 50 1012.7
20260504173908 66 323 3.0 6.0 0.00 0.00 0.00 51 1012.7
20260504173805 66 326 3.0 6.0 0.00 0.00 0.00 51 1012.7
20260504173705 66 318 2.0 6.0 0.00 0.00 0.00 50 1012.8
20260504173607 66 329 2.0 6.0 0.00 0.00 0.00 50 1012.8
20260504173514 66 302 2.0 6.0 0.00 0.00 0.00 50 1012.7
20260504173406 66 324 2.0 6.0 0.00 0.00 0.00 50 1012.8
20260504173302 66 319 2.0 6.0 0.00 0.00 0.00 50 1012.8
20260504173200 66 319 2.0 6.0 0.00 0.00 0.00 50 1012.8
20260504173059 66 319 2.0 6.0 0.00 0.00 0.00 50 1012.8
20260504172959 66 328 2.0 6.0 0.00 0.00 0.00 50 1012.8
20260504172900 66 324 3.0 7.0 0.00 0.00 0.00 51 1012.8
20260504172752 66 306 3.0 8.0 0.00 0.00 0.00 51 1012.7
20260504172654 67 312 3.0 8.0 0.00 0.00 0.00 51 1012.8
20260504172552 67 323 3.0 8.0 0.00 0.00 0.00 51 1012.8
20260504172453 67 326 3.0 8.0 0.00 0.00 0.00 51 1012.8
20260504172352 67 325 3.0 8.0 0.00 0.00 0.00 50 1012.8
20260504172248 67 326 3.0 8.0 0.00 0.00 0.00 51 1012.8
20260504172147 67 326 3.0 8.0 0.00 0.00 0.00 50 1012.8
20260504172047 67 331 3.0 8.0 0.00 0.00 0.00 50 1012.8
20260504171949 67 331 3.0 8.0 0.00 0.00 0.00 49 1012.8
20260504171849 67 325 2.0 8.0 0.00 0.00 0.00 50 1012.8
20260504171751 67 327 3.0 8.0 0.00 0.00 0.00 49 1012.8
20260504171646 67 329 2.0 6.0 0.00 0.00 0.00 50 1012.8
20260504171548 67 326 3.0 6.0 0.00 0.00 0.00 50 1012.8
20260504171449 67 332 3.0 6.0 0.00 0.00 0.00 50 1012.9
20260504171240 67 304 3.0 6.0 0.00 0.00 0.00 49 1013.0
20260504171147 67 331 3.0 6.0 0.00 0.00 0.00 50 1013.0
20260504171042 67 301 3.0 6.0 0.00 0.00 0.00 50 1013.0
20260504170936 67 295 3.0 6.0 0.00 0.00 0.00 49 1013.0
20260504170737 67 328 3.0 6.0 0.00 0.00 0.00 49 1013.0
20260504170636 67 334 3.0 6.0 0.00 0.00 0.00 49 1012.9
20260504170547 67 328 2.0 6.0 0.00 0.00 0.00 49 1013.0
20260504170456 67 326 2.0 6.0 0.00 0.00 0.00 50 1013.0
20260504170345 67 284 2.0 5.0 0.00 0.00 0.00 50 1012.9
20260504170301 67 277 2.0 5.0 0.00 0.00 0.00 50 1012.9
20260504170228 67 317 2.0 5.0 0.00 0.00 0.00 49 1012.9
20260504170132 67 317 2.0 5.0 0.00 0.00 0.00 49 1013.0